Tracking 35035 objects as of 16-Aug-2026
HD Live streaming from Space Station
objects crossing your sky now

SALYUT 7 DEB


SALYUT 7 DEB is no longer on orbit


NORAD ID: 16046
Int'l Code: 1982-033EX
Launch date: April 19, 1982
Source: Commonwealth of Independent States (former USSR) (CIS)
Launch site: TYURATAM MISSILE AND SPACE COMPLEX (TTMTR)
Decay date: 1985-11-24

Note: This is SATELLITE DEBRIS
Your satellite tracking list
Your tracking list is empty




NASA's NSSDC Master Catalog

Two Line Element Set (TLE):
1 16046U 82033 EX 85327.25004231  .06769670 +16511-4 +34485-2 0  9990
2 16046 051.5442 214.1515 0025358 304.7063 055.1586 16.18922855002408
Source of the keplerian elements: AFSPC